Flag for Colombia Weather past 2 weeks in Cartagena, Colombia

Now
86 °F

Sunny.


Feels Like: 95 °F
Forecast: N/A
Wind: 13 mph from Northeast

Location: Cartagena / Rafael Nunez

Current Time: Jul 4, 2015 at 6:23:14 PM

Latest Report: Jul 4, 2015 at 6:00 PM


Visibility: 10 mi

Pressure: 29.68 "Hg

Humidity: 70%

Dew point: 75 °F

Location of CartagenaLocation

Historic Weather in Cartagena — Graph

°F

Cartagena temperature yesterday

Maximum temperature yesterday: 91 °F (at 4:00 PM)
Minimum temperature yesterday: 79 °F (at 6:00 AM)
Average temperature yesterday: 84 °F

Past Weeks' High & Low Weather Summary

 TemperatureHumidityPressure
High104 °F (Jun 24, 1:00 PM)94% (Jun 22, 1:00 AM)29.86 "Hg (Jun 22, 1:00 AM)
Low77 °F (Jul 1, 5:00 AM)33% (Jun 24, 1:00 PM)29.60 "Hg (Jul 3, 4:00 PM)
Average85 °F78%29.76 "Hg
* Reported Jun 19 5:00 PM — Jul 4 5:00 PM, Cartagena, Weather by CustomWeather, © 2015

Note: Actual official high and low records may vary slightly from our data, if they occured in-between our weather recording intervals... More about our weather records

Advertising

Cartagena weather history for previous 24 hours

 ConditionsComfort  
Time TempWeatherWind HumidityBarometerVisibility
5:00 PM
Sat, Jul 4
90 °FPassing clouds.17 mph63%29.66 "HgN/A
4:00 PM88 °FPassing clouds.16 mph70%29.66 "HgN/A
3:00 PM90 °FPassing clouds.14 mph67%29.67 "HgN/A
2:00 PM88 °FPassing clouds.16 mph70%29.68 "HgN/A
1:00 PM88 °FPassing clouds.17 mph70%29.70 "HgN/A
12:00 PM90 °FPassing clouds.16 mph67%29.71 "Hg6 mi
11:00 AM90 °FClear.12 mph67%29.73 "Hg5 mi
10:00 AM88 °FClear.6 mph66%29.74 "Hg6 mi
9:00 AM88 °FClear.2 mph62%29.75 "Hg6 mi
8:00 AM84 °FClear.2 mph74%29.74 "Hg6 mi
7:00 AM81 °FClear.2 mph89%29.74 "Hg6 mi
6:00 AM79 °FSunny.3 mph84%29.72 "Hg10 mi
5:00 AM81 °FClear.5 mph79%29.71 "Hg10 mi
4:00 AM81 °FClear.7 mph79%29.70 "Hg10 mi
3:00 AM81 °FClear.5 mph84%29.69 "Hg10 mi
2:00 AM81 °FClear.3 mph79%29.68 "Hg10 mi
1:00 AM81 °FClear.3 mph84%29.69 "Hg10 mi
12:00 AM82 °FClear.6 mph84%29.69 "Hg10 mi
11:00 PM
Fri, Jul 3
82 °FClear.3 mph84%29.70 "Hg10 mi
10:00 PM82 °FClear.6 mph79%29.69 "Hg10 mi
9:00 PM82 °FClear.6 mph79%29.68 "Hg10 mi
8:00 PM82 °FClear.9 mph79%29.66 "Hg10 mi
7:00 PM82 °FClear.8 mph79%29.64 "Hg10 mi
6:00 PM84 °FSunny.9 mph74%29.61 "Hg10 mi
Weather by CustomWeather, © 2015

See weather overviewHow to use our weather pages